Showing default

YARILO-2, 46491

Orbit data source: Space-Track

YARILO-2, 46491 is a payload satellite owned by MGTU Bauman (CIS) in LEO that was launched on Mon, 28 Sep 2020 UTC via a SOYUZ-2-1B launch vehicle from the Plesetsk Missile And Space Complex (PKMTR). Payloads include a variety of satellites, spacecraft, and rockets equipped with specific instruments for various scientific and technological missions. These include communications satellites like Starlink; space stations such as the ISS; scientific satellites like the Hubble; Earth observation satellites from companies like Planet Labs, Umbra, and HawkEye 360; GPS; miniature CubeSats for education and research; and military/defense satellites.

Not visible in the next 10 days
YARILO-2 details
Identifier
46491, 2020-068F
Orbit
LEO
Last TLE update19 hours ago
Origin
Flag of CISMGTU Bauman (CIS)
ManufacturerMGTU Bauman
MissionOperational Amateur Science
Bus & MotorCUBESAT 1.5U, Unknown motor
Mass2 kg wet, 2 kg dry
Launch date (UTC)
2020-09-28 (4 years ago)
Launch vehicle
SOYUZ-2-1B
Launch site
Plesetsk Missile And Space Complex (PKMTR)
Object type
Payload
Rocket body
Debris
Shape & HBRBox + 2 Pan, Unknown HBR
Radar Cross Section0.025 m², Small (<0.1 m²)

Expand to show TLE details & history

TLE from 19 hours ago
0 YARILO-2
1 46491U 20068F   25039.82307463  .09519039  28755-5  10124-2 0  9990
2 46491  97.7749  32.6421 0006725 182.3651 177.7615 16.37592311241495
Epoch: 2025-02-08T19:45Z
Definitive object data (Epoch: 2025-02-08T19:45:13.648Z)
Latitude-0.00003°
Longitude-42.83019°
Altitude179.855 km
Speed7.796 km/s
True Right ascension02h 10m 34s
True Declination0° 00' 00"
Sunlit
Object was in daylight at TLE epoch
Visualization TLE readout
Latitude77.30233°
Longitude-78.88144°
Altitude146.242 km
Speed7.824 km/s
Apparent Right ascension04h 19m 19s
Apparent Declination23° 25' 02"
Sunlit
Object is in daylight
Visualization observer readout
Local Sidereal Time17:22:38
Azimuth16.027° NNE
Elevation-24.968°
Doppler factor1
Orbital elements
Apogee altitude173.446 km
Perigee altitude164.64 km
Semi-major axis6,547.18 km
Eccentricity0.0006725
Inclination97.7749°
RAAN32.6421°
Arg. of periapsis182.3651°
True anomaly177.76451°
Mean anomaly177.7615°
Eccentric anomaly177.763°
Mean motion4.09696 °/min
BSTAR0.0010124
Orbital period87.87 mins
Loading maneuver chart data...
Loading historical data...
Loading historical data...
Loading historical data...
Loading historical data...
Loading historical data...
Loading historical data...
Loading historical data...

YARILO-2 Visibility forecast

Observer location: undefined°, undefined

YARILO-2 is not visible in the next 10 days
Span
Click to sort rows by Start time (UTC) header in descending order
Start Az.
Max El. time (UTC)
Max El. Az.
Max El.
End time (UTC)
End Az.
|